SCP
0 0 0 0 0 0 0 0 0 0 0 0 0 0 0 0 0 0 0 0 0 0 0 0 0 0 0 0 0 0 0 0 0 0 0 0 0 0
0 0 0 0 0 0 0 0 0 0 0 0 0 0 0 0 0 0 0 0 0 0 0 0 0 0 0 0 0 0 0 0 0 0 0 0 0 0
0 0 0 0 0 0 0 0 0 0 0 0 0 0 0 0 0 0 0 0 0 0 0 0 0 0 0 0 0 0 0 0 0 0 0 0 0 0
0 0 0 0 0 0 0 0 0 0 0 0 0 0 0 0 0 0 0 0 0 0 0 0 0 0 0 0 0 0 0 0 0 0 0 0 0 0
0 0 0 0 0 0 0 0 0 0 0 0 0 0 0 0 0 0 0 0 0 0 0 0 0 0 0 0 0 0 0 0 0 0 0 0 0 0
0 0 0 0 0 0 0 0 0 0 0 0 0 0 0 0 0 0 0 0 0 0 0 0 0 0 0 0 0 0 0 0 0 0 0 0 0 0
0 0 0 0 0 0 0 0 0 0 0 0 0 0 0 0 0 0 0 0 0 0 0 0 0 0 0 0 0 0 0 0 0 0 0 0 0 0
0 0 0 0 0 0 0 0 0 0 0 0 0 0 0 0 0 0 0 0 0 0 0 0 0 0 0 0 0 0 0 0 0 0 0 0 0 0
0 0 0 0 0 0 0 0 0 0 0 0 0 0 0 0 0 0 0 0 0 0 0 0 0 -0 -0 0 0 0 0 0 0 0 0 0 0 0
0 0 0 0 0 0 0 0 0 0 0 0 0 0 0 0 0 0 0 0 0 0 0 0 0 0 0 0 0 0 0 0 0 0 0 0 0 0
0 0 0 0 0 0 0 0 0 0 0 0 0 0 0 0 0 0 0 0 0 0 0 0 0 0 0 0 0 0 0 0 0 0 0 0 0 0
0 0 0 0 0 0 0 0 0 0 0 0 0 0 0 0 0 0 0 0 0 0 0 0 0 0 0 0 0 0 0 0 0 0 0 0 0 0
0 0 0 0 0 0 0 0 0 0 0 0 0 0 0 0 0 0 0 0 0 0 0 0 0 0 0 0 0 0 0 0 0 0 0 0 0 0
0 0 0 0 0 0 0 0 0 0 0 0 0 0 0 0 0 0 0 0 0 0 0 0 0 0 0 0 0 0 0 0 0 0 0 0 0 0
0 0 0 0 0 0 0 0 0 0 0 0 0 0 0 0 0 0 0 0 0 0 0 0 0 0 0 0 0 0 0 0 0 0 0 0 0 0
0 0 0 0 0 0 0 0 0 0 0 0 0 0 0 0 0 0 0 0 0 0 0 0 0 0 0 0 0 0 0 0 0 0 0 0 0 0
0 0 0 0 0 0 0 0 0 0 0 0 0 0 0 0 0 0 0 0 0 0 0 0 0 0 0 0 0 0 0 0 0 0 0 0 0 0
0 0 0 0 0 0 0 0 0 0 0 0 0 0 0 0 0 0 0 0 0 0 0 0 0 0 0 0 0 0 0 0 0 0 0 0 0 0
0 0 0 0 0 0 0 0 0 0 0 0 0 0 0 0 0 0 0 0 0 0 0 0 0 0 0 0 0 0 0 0 0 0 0 0 0 0
0 0 0 0 0 0 0 0 0 0 0 0 0 0 0 0 0 0 0 0 0 0 0 0 0 0 0 0 0 0 0 0 0 0 0 0 0 0
0 0 0 0 0 0 0 0 0 0 0 0 0 0 0 0 0 0 0 0 0 0 0 0 0 0 0 0 0 0 0 0 0 0 0 0 0 0
0 0 0 0 0 0 0 0 0 0 0 0 0 0 0 0 0 0 0 0 0 0 0 0 0 0 0 0 0 0 0 0 0 0 0 0 0 0
0 0 0 0 0 0 0 0 0 0 0 0 0 0 0 0 0 0 0 0 0 0 0 0 0 0 0 0 0 0 0 0 0 0 0 0 0 0
Wind_Speed
3 3 2 2 2 2 2 2 2 3 3 2 1 1 1 1 1 1 2 6 8 9 8 8 8 8 8 8 8 9 9 9 9 9 9 9 9 10
3 3 3 2 2 2 2 2 3 3 4 2 1 1 1 1 2 2 3 7 8 8 8 8 7 8 8 8 8 8 8 8 8 9 9 9 9 10
3 3 4 3 3 3 2 2 3 3 4 4 2 2 2 2 2 2 3 3 3 8 8 8 8 8 8 8 8 8 8 8 8 9 9 9 9 9
4 4 4 3 4 3 3 4 3 3 4 5 3 2 3 3 3 3 3 3 3 6 8 9 9 9 8 9 9 8 8 8 8 8 9 9 9 9
4 4 4 4 4 3 4 4 3 4 3 4 4 3 3 3 2 3 3 3 4 5 7 8 9 9 10 10 9 9 8 8 8 8 9 9 9 9
4 4 4 4 5 4 4 4 3 3 3 3 4 3 3 3 2 2 3 3 3 4 5 6 8 10 10 10 9 8 8 9 9 9 9 9 9 9
3 4 4 5 7 6 4 4 4 3 3 3 4 3 3 3 3 2 3 3 4 3 2 3 4 3 5 8 9 9 9 10 9 9 9 9 9 10
4 4 4 5 7 9 10 8 6 5 5 4 4 5 5 4 3 3 2 2 4 2 1 4 3 4 4 3 8 10 10 10 9 9 9 10 10 11
4 4 4 4 6 4 6 9 9 11 10 6 6 7 5 4 3 3 3 4 5 3 2 5 3 4 4 5 10 10 10 10 10 10 10 11 12 12
5 5 5 5 5 5 4 5 5 7 8 7 7 6 5 4 4 4 4 4 4 3 2 4 4 4 4 4 9 10 10 10 11 11 11 11 12 13
5 5 5 5 8 9 5 5 5 6 8 10 10 10 11 10 7 3 2 3 5 4 2 3 3 3 3 3 5 8 9 10 11 11 12 12 12 12
4 4 7 7 9 9 5 5 7 6 5 5 7 8 8 8 10 5 4 4 4 4 2 2 2 2 4 3 2 2 4 8 11 12 13 13 13 7
3 3 3 7 9 10 8 6 9 8 5 5 4 4 4 4 4 4 4 4 5 5 2 1 2 2 3 4 3 2 3 3 4 6 9 12 13 9
4 3 4 8 9 10 8 9 12 10 4 4 4 4 4 4 4 4 5 5 5 6 4 3 3 3 3 4 5 3 3 3 3 4 3 8 10 13
4 7 8 10 9 7 9 11 9 5 4 4 5 5 4 4 3 3 4 4 4 5 4 5 4 4 4 5 5 4 4 4 3 3 3 4 4 5
4 6 9 10 7 7 7 6 4 4 4 5 4 4 3 3 3 3 4 3 4 4 4 5 5 6 6 6 6 6 5 4 3 3 4 5 5 5
4 3 3 3 3 3 3 3 3 3 4 4 4 4 3 4 4 3 4 4 5 5 4 3 4 4 6 6 6 7 6 6 5 5 5 6 5 5
6 4 4 4 4 4 4 4 3 4 4 4 4 4 4 4 4 3 4 5 5 5 4 3 2 3 3 5 9 8 6 6 5 5 4 6 7 6
5 4 5 5 4 4 4 4 4 4 4 4 4 5 5 5 4 4 4 5 5 5 4 3 3 3 4 5 5 7 5 4 4 5 5 5 7 7
4 5 5 5 4 4 4 4 4 4 4 4 5 5 5 5 5 5 5 5 5 5 4 3 4 4 5 5 4 4 7 6 4 6 5 5 6 10
4 5 5 5 4 4 4 4 4 4 5 4 5 5 5 5 5 5 5 8 6 5 5 5 5 6 3 2 4 5 4 7 8 6 5 5 6 5
5 5 5 5 4 4 4 4 4 5 5 5 5 5 5 5 6 6 5 5 5 5 5 4 2 2 3 4 6 6 6 5 7 12 12 10 5 5
5 5 5 5 4 4 4 5 6 5 5 5 5 4 4 5 5 5 5 5 4 4 4 3 2 3 4 4 5 5 7 6 5 6 7 11 15 18
Wind_Direction
238 245 244 247 235 230 225 199 203 259 277 264 230 197 174 166 256 279 277 300 310 312 314 319 323 323 321 324 325 326 325 326 327 328 328 331 334 338
229 235 247 244 236 223 218 226 211 214 252 273 262 259 242 252 265 272 266 291 302 306 307 309 312 314 315 316 318 320 320 320 320 323 326 328 331 335
237 229 241 241 236 228 223 224 228 215 245 274 278 280 271 270 284 272 268 266 270 288 295 298 301 303 306 308 310 312 314 315 318 321 324 325 328 330
236 233 238 238 237 230 224 225 229 225 229 259 274 270 265 260 257 266 273 267 258 275 284 290 291 295 298 298 300 303 306 307 309 312 315 318 321 323
232 232 237 232 239 235 231 231 234 240 230 240 262 263 267 268 270 278 276 275 276 273 278 282 284 288 290 289 291 293 297 299 299 301 307 312 314 316
241 235 235 230 233 231 233 231 230 239 242 243 255 263 263 265 251 264 283 273 276 279 277 281 284 285 284 283 284 287 290 292 293 294 299 304 307 308
256 245 238 233 233 234 237 227 218 224 234 242 253 261 259 256 247 245 262 282 283 261 266 278 281 274 273 274 277 277 281 282 285 290 295 300 302 303
257 256 251 246 243 248 253 250 233 225 227 234 247 250 255 247 245 245 252 281 286 272 272 281 264 263 259 248 265 273 276 275 279 286 292 297 298 300
252 253 255 248 250 238 252 260 258 254 246 237 239 244 250 245 241 251 244 248 257 258 276 280 267 265 262 265 271 271 271 271 275 281 288 293 297 298
247 243 243 247 239 231 231 245 247 251 250 246 244 250 249 244 229 233 239 256 268 265 234 270 277 269 277 268 265 264 268 272 277 282 288 294 296 295
256 250 244 242 248 247 238 244 256 258 255 247 245 249 253 260 257 248 247 263 277 273 223 241 271 287 282 268 258 262 273 278 282 284 289 294 295 296
265 259 252 250 253 253 241 237 255 262 260 263 254 256 256 257 257 238 219 239 261 271 229 219 259 300 297 281 264 267 276 278 281 286 292 294 294 293
267 267 263 267 265 262 256 243 254 265 258 252 253 251 247 242 242 234 221 224 239 249 236 210 245 239 253 288 290 266 258 268 280 286 289 291 292 291
260 263 263 275 275 271 268 261 266 271 260 255 254 250 246 244 239 234 233 233 235 244 241 220 231 235 255 274 279 281 274 269 269 275 275 289 293 294
255 266 275 280 282 275 268 270 272 261 250 251 252 251 242 240 237 236 237 239 245 249 244 230 231 239 242 253 267 275 289 280 259 263 275 278 277 282
272 275 282 279 275 268 270 268 253 242 246 251 256 253 246 242 241 235 241 244 253 257 241 231 231 233 246 251 258 267 264 269 276 272 276 276 271 264
281 277 270 265 258 256 254 254 248 250 253 250 252 256 253 250 249 237 236 240 246 257 255 240 235 237 241 248 259 260 262 263 264 271 278 283 277 268
282 268 267 260 257 255 255 256 249 248 250 248 248 249 251 252 255 246 239 241 248 251 251 246 248 265 263 255 237 251 254 258 265 265 264 279 286 279
271 260 262 260 259 256 252 251 253 249 248 247 247 249 249 249 251 252 247 246 248 249 245 233 226 231 261 277 263 223 240 263 271 271 264 264 277 283
254 257 260 260 259 257 257 258 259 256 251 250 249 249 246 247 250 249 245 245 249 251 248 233 223 226 240 260 273 268 240 248 260 272 279 277 274 279
261 259 259 260 260 257 257 256 257 259 258 254 250 250 248 245 248 246 244 248 247 245 247 244 237 243 247 251 270 276 264 247 252 262 275 285 289 286
264 264 263 261 261 258 259 258 259 260 259 256 251 249 247 245 247 245 241 242 240 241 249 254 238 230 229 244 263 276 287 290 278 274 267 254 255 262
263 264 263 259 256 257 258 258 259 261 259 257 254 250 248 248 247 245 243 240 241 242 248 253 243 232 240 248 262 274 282 290 294 292 280 271 267 266